PDT,Max TemperatureF,Mean TemperatureF,Min TemperatureF,Max Dew PointF,MeanDew PointF,Min DewpointF,Max Humidity, Mean Humidity, Min Humidity, Max Sea Level PressureIn, Mean Sea Level PressureIn, Min Sea Level PressureIn, Max VisibilityMiles, Mean VisibilityMiles, Min VisibilityMiles, Max Wind SpeedMPH, Mean Wind SpeedMPH, Max Gust SpeedMPH,PrecipitationIn, CloudCover, Events, WindDirDegrees
2014-3-1,42,40,37,35,29,21,89,70,49,29.68,29.65,29.61,10,10,10,8,6,,0.00,8,,21
2014-3-2,44,40,37,40,38,35,97,91,82,29.68,29.60,29.52,10,9,4,8,3,,0.18,8,Rain,14
2014-3-3,51,44,37,44,40,37,97,89,74,29.91,29.73,29.62,10,8,2,15,5,20,0.25,7,Rain,273
2014-3-4,43,40,37,40,38,35,100,93,80,29.95,29.91,29.82,10,8,1,9,5,,0.08,8,Rain,98
2014-3-5,53,46,39,47,43,39,100,92,74,29.82,29.58,29.36,10,7,1,10,5,,0.81,7,Rain,103
2014-3-6,54,48,43,49,45,41,100,87,66,30.04,29.64,29.37,10,9,5,14,4,20,0.97,8,Rain,260
2014-3-7,52,46,37,46,43,36,97,89,77,30.26,30.17,30.04,10,10,4,9,2,,0.00,6,,124
2014-3-8,48,44,39,47,43,37,97,93,86,30.09,29.81,29.68,10,7,0,13,3,,0.87,7,Fog-Rain,307
2014-3-9,53,48,42,47,45,40,96,85,74,30.01,29.96,29.82,10,10,8,14,8,,0.02,5,Rain,291
2014-3-10,52,47,42,43,40,33,93,79,61,30.46,30.15,29.97,10,10,10,17,10,29,0.00,4,,280
2014-3-11,51,44,35,42,35,29,92,74,61,30.58,30.53,30.46,10,10,10,15,8,22,0.00,0,,243
2014-3-12,55,44,32,41,37,31,96,80,52,30.45,30.32,30.20,10,10,8,7,4,,0.00,3,,253
2014-3-13,52,43,35,43,38,33,93,83,54,30.21,30.12,29.96,10,10,10,9,4,,0.01,4,Rain,187
2014-3-14,57,49,41,46,40,36,93,73,49,30.33,30.07,29.84,10,10,6,18,8,26,0.17,4,Rain,261
2014-3-15,54,48,43,47,42,36,97,84,57,30.33,30.19,30.11,10,9,2,14,4,22,0.67,8,Rain,220
2014-3-16,48,45,42,44,42,33,93,86,65,30.19,30.12,30.01,10,9,4,18,8,24,0.30,8,Rain,279
2014-3-17,52,46,42,34,30,27,71,58,41,30.32,30.23,30.02,10,10,10,21,17,34,0.00,4,,277
2014-3-18,46,42,39,43,41,36,96,92,79,30.32,30.26,30.17,10,8,2,5,1,,0.10,8,Rain,7
2014-3-19,48,42,37,44,40,29,100,86,60,30.21,30.09,30.01,10,7,1,18,4,31,0.19,6,Rain,267
2014-3-20,48,42,37,35,32,30,82,69,54,30.38,30.31,30.22,10,10,10,15,11,25,0.00,1,,274
2014-3-21,48,40,32,38,31,24,93,73,39,30.38,30.36,30.33,10,9,2,10,7,,0.07,4,Rain,196
2014-3-22,46,37,28,39,32,25,93,76,56,30.33,30.29,30.26,10,10,8,8,4,,0.03,6,Rain,203
2014-3-23,48,42,39,39,36,33,97,77,59,30.37,30.33,30.28,10,10,5,9,4,,0.00,6,,108
2014-3-24,57,46,35,39,35,32,96,69,39,30.26,30.06,29.86,10,10,10,16,5,31,0.00,2,Rain,133
2014-3-25,57,50,43,46,41,35,90,76,50,29.83,29.56,29.45,10,10,2,13,5,17,0.39,6,Rain,245
2014-3-26,48,42,35,43,40,34,97,87,74,29.58,29.54,29.49,10,9,2,7,3,,0.01,6,Rain,258
2014-3-27,53,44,37,44,41,37,100,87,61,29.84,29.76,29.55,10,7,1,7,3,,0.03,5,Rain,286
2014-3-28,57,46,37,45,41,36,100,88,64,29.84,29.69,29.61,10,9,2,10,3,,0.06,6,Rain,228
2014-3-29,54,48,43,43,41,39,93,80,61,29.77,29.69,29.62,10,9,2,16,4,17,0.46,6,Rain,232
2014-3-30,50,44,37,42,39,35,96,83,66,29.99,29.92,29.80,10,9,2,10,4,,0.02,6,Rain,184
2014-3-31,53,42,33,40,36,32,97,82,54,29.98,29.89,29.77,10,10,2,10,4,,0.00,4,,138